KB9JNN Weather Reports


Display with metric or nautical units.
time (UTC)temp
F
wind
direction
speed
MPH
gust
MPH
rain 1hr
in
rain 24hr
in
rain mn
in
humidity
%
barometer
mb
20260906151542 72 186 3.0 7.0 0.00 0.00 0.00 81 1021.7
20260906150040 71 169 4.0 8.0 0.00 0.00 0.00 84 1021.7
20260906144548 70 146 4.0 8.0 0.00 0.00 0.00 86 1021.6
20260906143039 70 144 4.0 7.0 0.00 0.00 0.00 89 1021.5
20260906141543 69 147 4.0 6.0 0.00 0.00 0.00 90 1021.6
20260906140048 68 110 1.0 5.0 0.00 0.00 0.00 93 1021.6
20260906134543 66 71 2.0 5.0 0.00 0.00 0.00 94 1021.7
20260906133051 66 82 1.0 4.0 0.00 0.00 0.00 94 1021.7
20260906131538 65 113 1.0 5.0 0.00 0.00 0.00 95 1021.6
20260906130040 64 60 1.0 6.0 0.00 0.00 0.00 94 1021.4
20260906124540 63 61 1.0 5.0 0.00 0.00 0.00 95 1021.4
20260906123045 63 59 1.0 4.0 0.00 0.00 0.00 95 1021.4
20260906121545 63 73 2.0 4.0 0.00 0.00 0.00 95 1021.3
20260906120039 62 38 1.0 3.0 0.00 0.00 0.00 96 1021.1
20260906114540 62 70 0.0 3.0 0.00 0.00 0.00 96 1020.7
20260906113038 61 43 1.0 4.0 0.00 0.00 0.00 96 1020.6
20260906111548 60 60 0.0 1.0 0.00 0.00 0.00 95 1020.1
20260906110041 61 0 0.0 1.0 0.00 0.00 0.00 95 1020.3
20260906104540 61 60 0.0 3.0 0.00 0.00 0.00 95 1020.2
20260906103039 61 60 1.0 4.0 0.00 0.00 0.00 94 1020.3
20260906101538 61 64 2.0 4.0 0.00 0.00 0.00 94 1020.1
20260906100042 61 18 3.0 5.0 0.00 0.00 0.00 95 1020.2
20260906094541 61 48 1.0 3.0 0.00 0.00 0.00 95 1020.2
20260906093048 61 35 1.0 3.0 0.00 0.00 0.00 95 1020.2
20260906091542 60 37 0.0 2.0 0.00 0.00 0.00 95 1020.0
20260906090040 60 37 0.0 1.0 0.00 0.00 0.00 94 1020.0
20260906084548 61 0 0.0 3.0 0.00 0.00 0.00 95 1020.1
20260906083043 60 4 1.0 3.0 0.00 0.00 0.00 96 1020.1
20260906081550 59 28 1.0 2.0 0.00 0.00 0.00 96 1020.0
20260906080040 59 0 0.0 0.0 0.00 0.00 0.00 95 1020.0
20260906074546 59 0 0.0 1.0 0.00 0.00 0.00 95 1020.1
20260906073051 59 0 0.0 0.0 0.00 0.00 0.00 95 1020.1
20260906071540 60 0 2.0 3.0 0.00 0.00 0.00 96 1020.1
20260906070053 59 0 0.0 1.0 0.00 0.00 0.00 96 1019.8
20260906064540 59 0 0.0 1.0 0.00 0.00 0.00 95 1019.7
20260906063041 58 0 0.0 1.0 0.00 0.00 0.00 94 1019.7
20260906061549 57 0 0.0 0.0 0.00 0.00 0.00 92 1019.7
20260906060043 58 0 0.0 0.0 0.00 0.00 0.00 92 1019.7
20260906054541 59 0 0.0 0.0 0.00 0.00 0.00 92 1019.9
20260906053041 60 0 0.0 1.0 0.00 0.00 0.00 92 1019.8
20260906051536 60 346 0.0 1.0 0.00 0.00 0.00 92 1019.7
20260906050104 60 0 0.0 1.0 0.00 0.00 0.00 89 1019.3
20260906044541 61 111 0.0 1.0 0.00 0.00 0.00 90 1019.1
20260906043055 62 111 0.0 1.0 0.00 0.00 0.00 90 1019.0
20260906041542 63 111 1.0 2.0 0.00 0.00 0.00 89 1018.9
20260906040104 63 0 0.0 2.0 0.00 0.00 0.00 88 1019.1
20260906034539 64 111 0.0 1.0 0.00 0.00 0.00 87 1018.7
20260906033037 64 111 0.0 2.0 0.00 0.00 0.00 87 1018.8
20260906031543 64 111 0.0 2.0 0.00 0.00 0.00 86 1018.7
20260906030041 64 110 1.0 2.0 0.00 0.00 0.00 86 1018.6
20260906024542 65 110 0.0 3.0 0.00 0.00 0.00 87 1018.6
20260906023054 66 110 2.0 4.0 0.00 0.00 0.00 89 1018.6
20260906021542 67 118 0.0 2.0 0.00 0.00 0.00 90 1018.6
20260906020042 67 75 1.0 6.0 0.00 0.00 0.00 91 1018.4
20260906014555 67 0 0.0 2.0 0.00 0.00 0.00 91 1018.3
20260906013040 67 66 1.0 2.0 0.00 0.00 0.00 91 1018.2
20260906011553 67 68 0.0 2.0 0.00 0.00 0.00 92 1018.2
20260906010044 67 0 0.0 0.0 0.00 0.00 0.00 90 1017.9
20260906004542 68 0 0.0 0.0 0.00 0.00 0.00 88 1017.9
20260906003041 69 0 0.0 2.0 0.00 0.00 0.00 87 1018.0
20260906001541 70 85 1.0 2.0 0.00 0.00 0.00 86 1017.9
20260906000043 71 89 1.0 3.0 0.00 0.00 0.00 86 1018.2
20260905234552 72 55 1.0 4.0 0.00 0.00 0.00 86 1018.3
20260905233043 72 76 1.0 4.0 0.00 0.00 0.00 85 1018.3
20260905231543 73 108 2.0 5.0 0.00 0.00 0.00 84 1018.2
20260905230044 73 112 1.0 4.0 0.00 0.00 0.00 83 1018.2
20260905224539 74 114 2.0 7.0 0.00 0.00 0.00 81 1018.0
20260905223041 74 46 0.0 2.0 0.00 0.00 0.00 82 1017.9
20260905220043 73 66 3.0 7.0 0.00 0.00 0.00 84 1017.7
20260905214541 73 51 4.0 8.0 0.00 0.00 0.00 83 1017.8
20260905213043 73 68 3.0 6.0 0.00 0.00 0.00 84 1017.8
20260905211537 73 34 5.0 11.0 0.00 0.00 0.00 84 1018.0
20260905210042 74 49 7.0 11.0 0.00 0.00 0.00 84 1017.9
20260905204539 73 18 4.0 10.0 0.00 0.00 0.00 85 1018.0
20260905203037 73 37 6.0 8.0 0.00 0.00 0.00 85 1018.0
20260905201543 73 29 5.0 8.0 0.00 0.00 0.00 85 1018.1
20260905200045 73 24 3.0 9.0 0.00 0.00 0.00 87 1018.0
20260905194541 73 8 4.0 7.0 0.00 0.00 0.00 87 1018.0
20260905193045 73 352 5.0 9.0 0.00 0.00 0.00 87 1018.0
20260905191546 73 34 4.0 7.0 0.00 0.00 0.00 88 1018.0
20260905190049 72 37 5.0 8.0 0.00 0.00 0.00 86 1018.1
20260905184555 73 36 2.0 6.0 0.00 0.00 0.00 85 1018.0
20260905183043 72 41 3.0 5.0 0.00 0.00 0.00 87 1018.1
20260905181544 72 63 2.0 5.0 0.00 0.00 0.00 88 1018.4
20260905180042 72 49 3.0 7.0 0.00 0.00 0.00 87 1018.5
20260905174541 72 41 4.0 9.0 0.00 0.00 0.00 88 1018.4
20260905173041 72 79 3.0 10.0 0.00 0.00 0.00 89 1018.4
20260905171541 72 39 5.0 9.0 0.00 0.00 0.00 89 1018.2
20260905170041 72 48 4.0 9.0 0.00 0.00 0.00 90 1018.0
20260905164543 72 76 6.0 9.0 0.00 0.00 0.00 88 1018.3
20260905163039 72 63 5.0 10.0 0.00 0.00 0.00 89 1018.3
20260905161544 71 11 4.0 8.0 0.00 0.00 0.00 91 1018.2
20260905160040 71 27 4.0 7.0 0.00 0.00 0.00 91 1018.4
20260905154542 71 357 4.0 8.0 0.00 0.00 0.00 92 1018.2
20260905153052 70 18 3.0 6.0 0.00 0.00 0.00 92 1018.0